Hickory, NC

11:26 PM EDT on July 22, 2017 (GMT -0400)
Hickory Regional

Weather History for KHKY - September, 2013

Change the Weather History Date:

Sunday, September 1, 2013

  Actual Average Record
Temperature  
Mean Temperature 78 °F -  
Max Temperature 88 °F 83 °F 95 °F (1957)
Min Temperature 68 °F 64 °F 52 °F (1976)
Cooling Degree Days 12    
Growing Degree Days 28 (Base 50)    
Moisture  
Dew Point 68 °F    
Average Humidity 89    
Maximum Humidity 96    
Minimum Humidity 59    
Precipitation  
Precipitation 0.58 in - - ()
Sea Level Pressure  
Sea Level Pressure 29.88 in    
Wind  
Wind Speed 2 mph (SW)    
Max Wind Speed 21 mph    
Max Gust Speed 41 mph    
Visibility 4 miles    
Events Fog , Rain    
Averages and records for this station are not official NWS values.
T = Trace of Precipitation, MM = Missing Value Source: NWS Daily Summary

Daily Weather History Graph

Daily Weather History Graph

Search for Another Location

Airport or City:

Trip Planner

Search our weather history database for the weather conditions in past years. The results will help you decide how hot, cold, wet, or windy it might be!

Date:

Astronomy

Sep. 01, 2013 Rise Set
Actual Time 6:57 AM EDT 7:52 PM EDT
Civil Twilight 6:31 AM EDT 8:18 PM EDT
Nautical Twilight 6:00 AM EDT 8:49 PM EDT
Astronomical Twilight 5:28 AM EDT 9:21 PM EDT
Moon 3:23 AM EDT (9/1) 5:25 PM EDT (9/1)
Length of Visible Light 13h 46m
Length of Day
12h 54m
Waning Crescent, 14% of the Moon is Illuminated
Sep 1
Waning Crescent
Sep 5
New
Sep 12
First Quarter
Sep 19
Full
Sep 26
Last Quarter

Hourly Weather History & Observations

Time (EDT) Temp. Heat Index Dew Point Humidity Pressure Visibility Wind Dir Wind Speed Gust Speed Precip Events Conditions
12:53 AM 69.1 °F - 66.9 °F 93% 29.88 in 6.0 mi Calm Calm - N/A   Clear
1:53 AM 69.1 °F - 66.9 °F 93% 29.86 in 5.0 mi Calm Calm - 0.01 in   Clear
2:53 AM 68.0 °F - 66.0 °F 93% 29.85 in 5.0 mi Calm Calm - N/A   Clear
3:30 AM 69.8 °F - 66.2 °F 88% 29.92 in 2.5 mi West 3.5 mph - N/A   Scattered Clouds
3:37 AM 68.0 °F - 66.2 °F 94% 29.91 in 0.8 mi WNW 3.5 mph - N/A   Mist
3:51 AM 68.0 °F - 66.2 °F 94% 29.91 in 0.5 mi Calm Calm - N/A Fog Fog
3:53 AM 68.0 °F - 66.9 °F 96% 29.85 in 0.5 mi Calm Calm - N/A Fog Fog
4:02 AM 68.0 °F - 66.2 °F 94% 29.91 in 0.2 mi Calm Calm - N/A Fog Fog
4:53 AM 69.1 °F - 66.9 °F 93% 29.85 in 0.2 mi Calm Calm - N/A Fog Fog
5:22 AM 69.8 °F - 68.0 °F 94% 29.92 in 0.5 mi Calm Calm - N/A Fog Fog
5:42 AM 69.8 °F - 68.0 °F 94% 29.92 in 1.5 mi Calm Calm - N/A   Overcast
5:50 AM 69.8 °F - 68.0 °F 94% 29.92 in 3.0 mi Calm Calm - N/A   Overcast
5:51 AM 69.1 °F - 68.0 °F 96% 29.86 in 3.0 mi Calm Calm - N/A   Overcast
6:50 AM 69.8 °F - 66.2 °F 88% 29.92 in 1.8 mi Calm Calm - 0.00 in   Overcast
6:51 AM 69.1 °F - 66.9 °F 93% 29.86 in 1.5 mi Calm Calm - 0.00 in   Overcast
6:59 AM 68.0 °F - 66.2 °F 94% 29.92 in 0.5 mi Calm Calm - N/A Fog Fog
7:06 AM 68.0 °F - 66.2 °F 94% 29.92 in 0.2 mi Calm Calm - N/A Fog Fog
7:37 AM 68.0 °F - 66.2 °F 94% 29.92 in 0.2 mi Calm Calm - N/A Fog Fog
7:53 AM 68.0 °F - 66.9 °F 96% 29.86 in 0.2 mi Calm Calm - N/A Fog Fog
8:26 AM 69.8 °F - 66.2 °F 88% 29.93 in 1.0 mi Calm Calm - N/A   Mist
8:53 AM 69.1 °F - 68.0 °F 96% 29.88 in 2.5 mi SW 4.6 mph - N/A   Overcast
9:28 AM 69.8 °F - 68.0 °F 94% 29.94 in 1.2 mi Calm Calm - N/A   Overcast
9:41 AM 69.8 °F - 68.0 °F 94% 29.94 in 0.5 mi Calm Calm - N/A Fog Fog
9:53 AM 70.0 °F - 68.0 °F 93% 29.88 in 1.2 mi South 3.5 mph - N/A   Overcast
9:58 AM 69.8 °F - 68.0 °F 94% 29.94 in 3.0 mi Calm Calm - N/A   Overcast
10:36 AM 73.4 °F - 69.8 °F 88% 29.94 in 8.0 mi Calm Calm - N/A   Scattered Clouds
10:53 AM 75.9 °F - 69.1 °F 79% 29.88 in 10.0 mi Calm Calm - N/A   Clear
11:53 AM 81.0 °F 84.9 °F 71.1 °F 72% 29.86 in 10.0 mi South 5.8 mph - N/A   Partly Cloudy
12:53 PM 84.0 °F 89.0 °F 71.1 °F 65% 29.84 in 10.0 mi SSW 10.4 mph - N/A   Partly Cloudy
1:53 PM 86.0 °F 91.5 °F 71.1 °F 61% 29.82 in 10.0 mi SSW 9.2 mph - N/A   Partly Cloudy
2:53 PM 87.1 °F 92.8 °F 71.1 °F 59% 29.79 in 10.0 mi SSW 9.2 mph 16.1 mph N/A   Scattered Clouds
3:53 PM 86.0 °F 90.7 °F 70.0 °F 59% 29.77 in 10.0 mi SSW 13.8 mph 20.7 mph N/A   Scattered Clouds
4:34 PM 73.4 °F - 66.2 °F 78% 29.90 in 1.8 mi NW 20.7 mph 41.4 mph 0.09 in Rain Rain
4:53 PM 69.1 °F - 66.9 °F 93% 29.82 in 0.5 mi NE 5.8 mph - 0.53 in Fog , Rain Heavy Rain
5:00 PM 69.8 °F - 66.2 °F 88% 29.87 in 2.0 mi NE 6.9 mph - 0.00 in Rain Light Rain
5:07 PM 69.8 °F - 66.2 °F 88% 29.86 in 10.0 mi NE 5.8 mph - 0.01 in Rain Light Rain
5:15 PM 69.8 °F - 68.0 °F 94% 29.87 in 10.0 mi Calm Calm - 0.01 in Rain Light Rain
5:53 PM 70.0 °F - 66.9 °F 90% 29.82 in 10.0 mi South 3.5 mph - 0.01 in Rain Light Rain
6:53 PM 70.0 °F - 66.9 °F 90% 29.82 in 9.0 mi Calm Calm - 0.02 in Rain Light Rain
7:19 PM 69.8 °F - 68.0 °F 94% 29.88 in 9.0 mi Calm Calm - 0.00 in   Partly Cloudy
7:50 PM 69.8 °F - 68.0 °F 94% 29.88 in 9.0 mi Calm Calm - 0.00 in   Mostly Cloudy
7:53 PM 70.0 °F - 68.0 °F 93% 29.83 in 9.0 mi Calm Calm - 0.00 in   Mostly Cloudy
8:26 PM 69.8 °F - 68.0 °F 94% 29.90 in 7.0 mi Calm Calm - N/A   Scattered Clouds
8:53 PM 70.0 °F - 68.0 °F 93% 29.84 in 8.0 mi Calm Calm - N/A   Clear
9:39 PM 69.8 °F - 68.0 °F 94% 29.90 in 5.0 mi Calm Calm - 0.01 in   Scattered Clouds
9:53 PM 70.0 °F - 68.0 °F 93% 29.84 in 6.0 mi Calm Calm - 0.01 in   Scattered Clouds
10:21 PM 69.8 °F - 68.0 °F 94% 29.91 in 6.0 mi West 3.5 mph - N/A   Mostly Cloudy
10:53 PM 69.1 °F - 66.9 °F 93% 29.86 in 2.5 mi WSW 4.6 mph - N/A   Mostly Cloudy
10:59 PM 69.8 °F - 66.2 °F 88% 29.92 in 1.0 mi West 3.5 mph - N/A   Mist
11:15 PM 69.8 °F - 66.2 °F 88% 29.91 in 3.0 mi Calm Calm - N/A   Overcast
11:36 PM 69.8 °F - 66.2 °F 88% 29.91 in 1.5 mi Calm Calm - N/A   Mostly Cloudy
11:53 PM 69.1 °F - 66.9 °F 93% 29.85 in 3.0 mi Calm Calm - N/A   Mostly Cloudy